Search for airport 
image banner adimage banner adimage banner ad
image banner ad

4CA3 - Camp Parks

Located in Pleasanton, United States

ICAO - 4CA3, IATA -

Data provided by Airmate  

General information

Coordinates: N37°42'30" W121°53'34"
Elevation is 361 feet MSL.
Magnetic variation is 16° East
View others Airports in California

Operational data

Special qualification required
Current time UTC:
Current local time:
Weather at : KLVK - Livermore Muni ( 7 km )
METAR: KLVK 240753Z AUTO 30004KT 10SM -RA FEW055 FEW070 OVC095 14/13 A2980 RMK AO2 SLP089 P0000 T01440133 401940117
TAF: KLVK 240540Z 2406/2506 04006KT P6SM -RA OVC030 FM241100 19011G18KT 5SM -RA BR OVC030 WS020/23040KT FM241500 20022G34KT 4SM -RA BR OVC025 WS020/23055KT FM241800 21022G34KT 4SM RA BR OVC025 WS020/23055KT FM242100 21025G40KT 3SM -RA BR OVC007 WS011/23055KT FM250100 18015G25KT 2SM +RA BR BKN010 OVC025
View NOTAMs / SUP AIP / TFR affecting this airport [VIEW]
Communications frequencies: [VIEW]

Runways:

Airport contact information

Address: Pleasanton United States

Satellite view of 4CA3